FW7079 Weather Reports


Display with metric or nautical units.
time (UTC)temp
F
wind
direction
speed
MPH
gust
MPH
rain 1hr
in
rain 24hr
in
rain mn
in
humidity
%
barometer
mb
20260902114620 75 0 0.0 2.0 0.00 0.00 0.00 77 1016.5
20260902113059 74 0 0.0 0.0 0.00 0.00 0.00 79 1016.4
20260902111604 74 0 0.0 0.0 0.00 0.00 0.00 78 1016.3
20260902110107 74 0 0.0 0.0 0.00 0.00 0.00 77 1016.2
20260902104606 75 0 0.0 0.0 0.00 0.00 0.00 76 1016.2
20260902103107 76 0 0.0 0.0 0.00 0.00 0.00 75 1016.1
20260902101600 77 0 0.0 0.0 0.00 0.00 0.00 73 1016.0
20260902100104 78 0 0.0 0.0 0.00 0.00 0.00 71 1016.0
20260902094601 79 0 0.0 0.0 0.00 0.00 0.00 69 1016.0
20260902093059 80 0 0.0 0.0 0.00 0.00 0.00 67 1016.0
20260902091601 81 0 0.0 1.0 0.00 0.00 0.00 65 1015.9
20260902090100 82 0 0.0 4.0 0.00 0.00 0.00 65 1015.9
20260902084600 82 0 0.0 2.0 0.00 0.00 0.00 64 1015.9
20260902083057 83 132 0.0 5.0 0.00 0.00 0.00 63 1015.8
20260902081554 83 132 1.0 4.0 0.00 0.00 0.00 62 1015.8
20260902074559 83 136 0.0 3.0 0.00 0.00 0.00 62 1015.8
20260902073101 82 0.0 0.0 0.00 0.00 0.00 62 1015.9
20260902071602 81 0 0.0 3.0 0.00 0.00 0.00 64 1015.8
20260902070105 78 0 0.0 1.0 0.00 0.00 0.00 69 1015.9
20260902064600 78 0 0.0 0.0 0.00 0.00 0.00 70 1015.9
20260902063109 79 0 0.0 0.0 0.00 0.00 0.00 67 1015.8
20260902061559 79 0 0.0 0.0 0.00 0.00 0.00 67 1015.7
20260902060124 79 0 0.0 1.0 0.00 0.00 0.00 66 1015.6
20260902054603 79 0 0.0 1.0 0.00 0.00 0.00 66 1015.5
20260902053100 78 0 0.0 0.0 0.00 0.00 0.00 68 1015.5
20260902051609 78 0 0.0 0.0 0.00 0.00 0.00 68 1015.4
20260902050058 79 126 0.0 1.0 0.00 0.00 0.00 66 1015.7
20260902044601 79 0 0.0 1.0 0.00 0.00 0.00 64 1015.7
20260902043101 79 0 0.0 0.0 0.00 0.00 0.00 65 1015.7
20260902041611 79 0 0.0 0.0 0.00 0.00 0.00 67 1015.6
20260902040058 78 0 0.0 0.0 0.00 0.00 0.00 67 1015.6
20260902034601 78 0 0.0 0.0 0.00 0.00 0.00 66 1015.6
20260902033057 79 0 0.0 0.0 0.00 0.00 0.00 67 1015.5
20260902031600 79 0 0.0 0.0 0.00 0.00 0.00 66 1015.3
20260902030055 80 0 0.0 0.0 0.00 0.00 0.00 64 1015.1
20260902024601 81 0 0.0 0.0 0.00 0.00 0.00 62 1014.9
20260902023057 82 0 0.0 0.0 0.00 0.00 0.00 60 1014.6
20260902021603 83 0 0.0 0.0 0.00 0.00 0.00 59 1014.4
20260902020059 84 0 0.0 0.0 0.00 0.00 0.00 57 1014.3
20260902014556 85 0 0.0 0.0 0.00 0.00 0.00 55 1014.2
20260902013100 87 0 0.0 0.0 0.00 0.00 0.00 51 1014.0
20260902011601 88 0 0.0 0.0 0.00 0.00 0.00 48 1014.0
20260902010056 90 0 0.0 0.0 0.00 0.00 0.00 45 1014.0
20260902004559 92 0 0.0 2.0 0.00 0.00 0.00 43 1013.9
20260902003106 95 0 0.0 1.0 0.00 0.00 0.00 38 1013.9
20260902001559 96 0 0.0 3.0 0.00 0.00 0.00 37 1014.0
20260902000117 97 127 1.0 4.0 0.00 0.00 0.00 37 1013.9
20260901234558 97 132 1.0 4.0 0.00 0.00 0.00 35 1014.0
20260901233101 98 126 1.0 5.0 0.00 0.00 0.00 35 1014.0
20260901231557 98 124 1.0 7.0 0.00 0.00 0.00 34 1014.2
20260901230116 99 13 3.0 7.0 0.00 0.00 0.00 32 1014.2
20260901224601 99 143 0.0 4.0 0.00 0.00 0.00 32 1014.2
20260901223114 99 150 2.0 7.0 0.00 0.00 0.00 31 1014.2
20260901221556 100 142 1.0 8.0 0.00 0.00 0.00 30 1014.2
20260901220133 101 136 2.0 7.0 0.00 0.00 0.00 30 1014.2
20260901214559 101 148 3.0 10.0 0.00 0.00 0.00 31 1014.3
20260901213118 101 169 2.0 4.0 0.00 0.00 0.00 32 1014.5
20260901211604 101 136 1.0 3.0 0.00 0.00 0.00 33 1014.7
20260901210105 101 66 2.0 7.0 0.00 0.00 0.00 32 1014.9
20260901204608 101 104 2.0 0.0 0.00 0.00 0.00 32 1015.0
20260901203110 100 0.0 0.0 0.00 0.00 0.00 33 1015.3
20260901201559 99 0.0 0.0 0.00 0.00 0.00 34 1015.4
20260901194556 102 136 4.0 7.0 0.00 0.00 0.00 30 1015.8
20260901193115 101 0.0 0.0 0.00 0.00 0.00 31 1016.0
20260901191557 101 0.0 0.0 0.00 0.00 0.00 32 1016.0
20260901184604 100 0.0 0.0 0.00 0.00 0.00 33 1016.4
20260901183101 100 0.0 0.0 0.00 0.00 0.00 33 1016.7
20260901181556 100 0.0 0.0 0.00 0.00 0.00 34 1016.8
20260901174603 100 122 1.0 0.0 0.00 0.00 0.00 33 1017.2
20260901173102 99 0.0 0.0 0.00 0.00 0.00 36 1017.5
20260901171601 98 152 1.0 11.0 0.00 0.00 0.00 38 1017.6
20260901170108 97 148 1.0 10.0 0.00 0.00 0.00 38 1017.7
20260901164630 96 0.0 0.0 0.00 0.00 0.00 38 1017.8
20260901163101 96 0.0 0.0 0.00 0.00 0.00 40 1017.9
20260901161601 96 136 2.0 6.0 0.00 0.00 0.00 40 1017.9
20260901160107 94 136 2.0 10.0 0.00 0.00 0.00 43 1017.9
20260901154600 93 136 3.0 9.0 0.00 0.00 0.00 44 1018.0
20260901153100 91 66 3.0 7.0 0.00 0.00 0.00 47 1017.8
20260901151615 90 151 4.0 9.0 0.00 0.00 0.00 48 1018.0
20260901144603 87 148 1.0 3.0 0.00 0.00 0.00 55 1018.2
20260901143103 85 121 1.0 6.0 0.00 0.00 0.00 58 1018.3
20260901141606 83 162 1.0 7.0 0.00 0.00 0.00 62 1018.3
20260901140107 81 142 0.0 3.0 0.00 0.00 0.00 65 1018.4
20260901134620 79 137 0.0 4.0 0.00 0.00 0.00 69 1018.3
20260901133059 77 0 0.0 1.0 0.00 0.00 0.00 73 1018.1
20260901131558 75 0 0.0 1.0 0.00 0.00 0.00 74 1018.0
20260901124557 71 0 0.0 0.0 0.00 0.00 0.00 80 1017.8
20260901123056 70 0 0.0 0.0 0.00 0.00 0.00 80 1017.6
20260901121558 69 0 0.0 0.0 0.00 0.00 0.00 81 1017.6
20260901120103 70 0 0.0 0.0 0.00 0.00 0.00 80 1017.4